User: anonymous
Location: Deer Path Park
(40.5570°N, 74.8450°W)
Time: 03:31:25
(UTC-04:00)
Language:

Iridium 49 - Orbit

View from above orbital plane
View from above orbital plane
View from above satellite
View from above satellite

Ground track
Ground track

The orbit data is extracted from the following two-line orbital elements,

1 25108U 97082E   14243.33321262  .00000259  00000-0  85303-4 0  8907
2 25108 086.3989 322.1483 0002425 110.2560 319.2158 14.34218929874058
Epoch (UTC): 31 August 2014 07:59:49
Eccentricity: 0.0002425
inclination: 86.3989°
perigee height: 776 km
apogee height: 779 km
right ascension of ascending node: 322.1483°
argument of perigee: 110.2560°
revolutions per day: 14.34218929
mean anomaly at epoch: 319.2158°
orbit number at epoch: 87405

The dashed part of the orbit path shows where the satellite is in the earth's shadow,  

DLR